User: anonymous   Login
Location: Bangkok
(13.7500°N, 100.5170°E)
Time: 03:31:48
(UTC+07:00)
Language:

Cosmos 1802 Rocket - Orbit

View from above orbital plane
View from above orbital plane
View from above satellite
View from above satellite

Ground track
Ground track

The orbit data is extracted from the following two-line orbital elements,

1 17160U 86093B   14296.98217190  .00000167  00000-0  15965-3 0  1940
2 17160 082.9292 061.7939 0037895 325.1800 172.7521 13.74525515399997
Epoch (UTC): 23 October 2014 23:34:19
Eccentricity: 0.0037895
inclination: 82.9292°
perigee height: 955 km
apogee height: 1011 km
right ascension of ascending node: 61.7939°
argument of perigee: 325.1800°
revolutions per day: 13.74525515
mean anomaly at epoch: 172.7521°
orbit number at epoch: 39999

The dashed part of the orbit path shows where the satellite is in the earth's shadow,  

DLR